User: anonymous   Login
Location: Scultetus-Sternwarte G�rlitz
(51.1356°N, 14.9514°E)
Time: 00:58:34
(UTC+02:00)
Language:

Iridium 3 - Orbit

View from above orbital plane
View from above orbital plane
View from above satellite
View from above satellite

Ground track
Ground track

The orbit data is extracted from the following two-line orbital elements,

1 25431U 98048A   17113.56474074 -.00000017 +00000-0 -13184-4 0  9995
2 25431 086.3923 278.5300 0002045 094.2226 308.1439 14.34214553977518
Epoch (UTC): 23 April 2017 13:33:13
Eccentricity: 0.0002045
inclination: 86.3923°
perigee height: 776 km
apogee height: 779 km
right ascension of ascending node: 278.5300°
argument of perigee: 94.2226°
revolutions per day: 14.34214553
mean anomaly at epoch: 308.1439°
orbit number at epoch: 97751

The dashed part of the orbit path shows where the satellite is in the earth's shadow,  

DLR